Temp
-5 -4 -4 -5 -4 -6 -7 -7 -7 -6 -5 -6 -7 -6 -6 -7 -7 -6 -5 -5 -5 -4 -5 -5 -5 -5 -5 -6 -6 -6 -6 -7 -7 -7 -6 -6 -7 -6 -6 -7 -7 -7 -7 -7
-4 -4 -5 -6 -4 -6 -6 -7 -7 -7 -6 -6 -6 -6 -5 -6 -6 -6 -6 -5 -5 -5 -5 -5 -5 -5 -6 -6 -6 -7 -7 -7 -6 -6 -7 -7 -7 -7 -6 -6 -7 -7 -6 -7
-4 -4 -5 -5 -5 -5 -6 -7 -7 -7 -7 -7 -7 -6 -6 -7 -6 -6 -7 -6 -5 -6 -6 -5 -5 -5 -6 -6 -6 -6 -7 -7 -7 -7 -6 -6 -6 -6 -6 -6 -6 -6 -6 -7
-4 -5 -4 -5 -4 -5 -6 -7 -7 -7 -6 -6 -7 -6 -6 -6 -6 -5 -5 -6 -6 -6 -6 -6 -6 -6 -6 -6 -6 -7 -7 -7 -7 -7 -7 -7 -6 -6 -6 -6 -6 -7 -6 -6
-4 -5 -5 -5 -5 -6 -6 -7 -7 -7 -7 -7 -6 -6 -6 -6 -5 -4 -5 -5 -5 -6 -6 -6 -6 -6 -6 -6 -6 -7 -7 -7 -7 -7 -6 -7 -7 -7 -7 -7 -7 -7 -7 -7
-5 -5 -5 -5 -5 -7 -7 -7 -7 -7 -7 -6 -7 -6 -6 -5 -5 -5 -5 -5 -5 -5 -6 -6 -6 -6 -6 -6 -6 -7 -7 -7 -7 -7 -7 -7 -7 -6 -7 -7 -7 -7 -7 -7
-5 -5 -5 -5 -6 -7 -7 -7 -6 -7 -7 -5 -6 -6 -6 -5 -5 -5 -6 -5 -5 -5 -6 -6 -6 -6 -6 -6 -6 -7 -7 -8 -8 -8 -7 -7 -7 -7 -7 -7 -7 -7 -7 -7
-5 -6 -6 -5 -5 -5 -6 -6 -6 -6 -6 -6 -6 -6 -6 -5 -5 -5 -5 -5 -5 -6 -6 -6 -7 -7 -6 -6 -6 -7 -7 -7 -8 -8 -8 -7 -7 -7 -7 -7 -7 -7 -7 -7
-5 -5 -7 -6 -6 -7 -6 -6 -6 -6 -6 -6 -6 -6 -5 -5 -5 -5 -5 -5 -5 -5 -6 -6 -7 -7 -7 -6 -6 -7 -8 -8 -8 -8 -8 -7 -7 -7 -7 -7 -7 -7 -6 -7
-6 -7 -6 -7 -7 -7 -7 -6 -6 -6 -6 -6 -6 -5 -5 -5 -5 -5 -5 -5 -6 -6 -6 -7 -7 -8 -8 -7 -7 -8 -9 -8 -8 -8 -7 -7 -6 -6 -6 -7 -7 -7 -7 -7
-7 -7 -7 -7 -7 -6 -6 -7 -6 -6 -6 -5 -6 -5 -5 -6 -6 -6 -5 -6 -6 -7 -6 -7 -7 -8 -8 -8 -8 -9 -9 -9 -8 -8 -8 -7 -6 -6 -6 -7 -8 -7 -7 -7
-8 -7 -7 -7 -7 -7 -7 -6 -6 -6 -6 -5 -5 -5 -5 -6 -6 -6 -5 -6 -5 -6 -7 -7 -6 -7 -7 -8 -6 -8 -9 -9 -9 -8 -8 -8 -8 -8 -9 -9 -8 -8 -8 -7
-8 -8 -7 -7 -7 -7 -7 -7 -7 -6 -6 -6 -6 -6 -6 -6 -6 -6 -6 -6 -6 -6 -6 -6 -7 -7 -6 -8 -6 -7 -7 -9 -9 -8 -8 -8 -8 -9 -9 -9 -8 -8 -7 -7
-9 -8 -7 -7 -7 -7 -7 -7 -7 -7 -6 -6 -6 -5 -6 -6 -6 -6 -6 -6 -7 -7 -7 -7 -7 -6 -7 -7 -8 -6 -8 -9 -9 -9 -8 -8 -8 -9 -9 -9 -8 -8 -8 -7
-9 -8 -8 -7 -7 -7 -7 -7 -7 -7 -7 -6 -6 -6 -6 -6 -6 -6 -6 -6 -7 -7 -7 -7 -7 -7 -7 -6 -8 -9 -9 -9 -9 -9 -8 -8 -8 -8 -8 -8 -8 -7 -7 -7
-8 -8 -8 -7 -7 -7 -7 -7 -7 -7 -7 -6 -6 -6 -7 -7 -7 -6 -6 -7 -7 -7 -7 -7 -7 -7 -7 -7 -8 -9 -9 -9 -9 -9 -8 -7 -7 -7 -7 -7 -7 -7 -7 -7
-8 -7 -8 -8 -7 -7 -7 -7 -7 -7 -7 -7 -6 -6 -6 -6 -7 -7 -7 -7 -7 -7 -7 -7 -7 -7 -7 -8 -8 -9 -9 -9 -9 -8 -8 -7 -7 -7 -7 -7 -7 -7 -7 -6
-9 -8 -8 -8 -8 -7 -7 -7 -7 -7 -7 -7 -7 -6 -6 -6 -7 -7 -7 -7 -7 -7 -7 -7 -7 -7 -8 -8 -8 -8 -9 -9 -9 -8 -8 -7 -7 -7 -7 -6 -7 -7 -7 -7
-9 -9 -8 -8 -8 -7 -7 -7 -7 -7 -7 -7 -6 -7 -6 -6 -7 -7 -7 -7 -7 -7 -6 -7 -7 -7 -8 -8 -8 -8 -8 -8 -8 -8 -8 -7 -7 -7 -7 -7 -7 -7 -7 -7
-9 -9 -9 -9 -8 -8 -7 -7 -7 -7 -7 -7 -7 -7 -7 -7 -7 -7 -7 -7 -7 -7 -7 -7 -7 -8 -8 -8 -8 -8 -8 -8 -9 -9 -8 -8 -7 -6 -7 -7 -7 -7 -7 -7
-9 -9 -9 -9 -8 -8 -7 -7 -7 -7 -7 -7 -7 -7 -7 -7 -7 -7 -7 -7 -7 -8 -8 -10 -8 -8 -8 -8 -8 -8 -8 -9 -9 -9 -9 -8 -7 -7 -7 -7 -7 -7 -7 -7
-9 -9 -9 -8 -8 -8 -8 -8 -8 -8 -8 -7 -7 -8 -8 -8 -8 -7 -8 -8 -8 -8 -8 -9 -10 -8 -8 -8 -8 -9 -9 -8 -9 -9 -8 -8 -8 -7 -7 -7 -7 -7 -6 -6
-9 -9 -8 -8 -8 -8 -8 -8 -8 -9 -9 -8 -8 -7 -7 -7 -8 -8 -8 -8 -8 -8 -8 -10 -9 -8 -8 -9 -8 -8 -9 -9 -9 -8 -8 -8 -8 -8 -7 -7 -7 -7 -6 -6
-9 -8 -9 -9 -8 -8 -8 -8 -8 -8 -8 -8 -9 -8 -8 -7 -7 -7 -7 -7 -7 -7 -7 -8 -8 -8 -8 -9 -9 -9 -9 -8 -8 -9 -9 -8 -8 -8 -7 -7 -6 -6 -6 -7
-8 -7 -8 -8 -8 -8 -8 -9 -8 -8 -8 -8 -8 -8 -8 -7 -7 -8 -8 -8 -7 -7 -9 -9 -9 -8 -9 -9 -9 -9 -9 -9 -8 -9 -9 -8 -8 -7 -7 -7 -7 -7 -7 -7
-8 -8 -9 -8 -8 -8 -8 -8 -8 -9 -9 -8 -8 -7 -8 -8 -8 -7 -8 -8 -7 -7 -8 -8 -8 -8 -9 -9 -9 -9 -9 -8 -9 -9 -9 -8 -8 -7 -7 -7 -7 -7 -7 -7
Height
5937 5939 5942 5944 5946 5946 5949 5951 5952 5952 5952 5948 5948 5950 5950 5947 5947 5946 5946 5945 5944 5942 5942 5941 5939 5939 5937 5937 5936 5935 5934 5935 5935 5935 5935 5936 5936 5934 5937 5939 5942 5941 5942 5943
5934 5939 5941 5941 5942 5944 5946 5949 5949 5949 5949 5949 5948 5952 5952 5949 5947 5946 5945 5945 5943 5942 5941 5940 5940 5939 5940 5939 5936 5935 5935 5934 5933 5933 5934 5934 5934 5934 5935 5937 5942 5943 5943 5942
5930 5939 5937 5939 5939 5942 5944 5946 5947 5946 5943 5944 5945 5950 5952 5950 5947 5944 5944 5943 5942 5941 5941 5940 5940 5940 5940 5942 5937 5935 5934 5933 5933 5933 5933 5934 5933 5934 5935 5938 5941 5941 5941 5941
5925 5931 5933 5934 5937 5938 5942 5945 5946 5943 5941 5943 5939 5948 5951 5949 5948 5945 5942 5941 5942 5942 5942 5941 5940 5941 5940 5940 5939 5935 5934 5934 5934 5934 5934 5933 5931 5932 5933 5935 5938 5939 5941 5940
5923 5923 5927 5930 5935 5935 5938 5942 5944 5943 5941 5941 5942 5946 5948 5948 5947 5942 5940 5941 5942 5942 5942 5941 5940 5939 5938 5938 5937 5937 5935 5934 5934 5933 5934 5934 5932 5932 5934 5935 5935 5937 5938 5937
5915 5918 5919 5926 5928 5930 5933 5937 5941 5938 5942 5940 5937 5945 5946 5947 5945 5941 5941 5943 5944 5941 5940 5941 5941 5941 5939 5937 5936 5936 5935 5934 5934 5934 5934 5933 5933 5932 5932 5933 5933 5936 5937 5938
5910 5914 5917 5920 5923 5927 5929 5933 5936 5938 5936 5940 5944 5944 5943 5942 5942 5938 5938 5941 5941 5939 5940 5941 5942 5943 5940 5938 5936 5935 5934 5933 5933 5932 5933 5933 5932 5934 5933 5933 5933 5933 5936 5937
5903 5909 5913 5916 5919 5924 5927 5930 5931 5933 5936 5940 5938 5939 5940 5939 5939 5938 5940 5941 5938 5937 5939 5941 5941 5942 5940 5937 5935 5933 5934 5932 5932 5932 5932 5932 5931 5932 5934 5934 5933 5933 5933 5934
5899 5905 5907 5912 5918 5921 5923 5923 5929 5930 5932 5934 5934 5936 5938 5938 5937 5937 5939 5940 5938 5938 5940 5942 5941 5939 5939 5937 5934 5932 5933 5932 5931 5931 5930 5930 5929 5930 5932 5934 5933 5933 5933 5934
5896 5899 5903 5909 5909 5910 5915 5919 5921 5923 5927 5929 5930 5931 5934 5935 5936 5936 5937 5936 5935 5938 5938 5940 5939 5938 5938 5936 5936 5932 5933 5933 5932 5930 5929 5927 5926 5926 5927 5930 5931 5932 5933 5933
5892 5896 5903 5903 5905 5908 5912 5914 5915 5919 5921 5924 5926 5928 5931 5931 5932 5934 5936 5937 5936 5936 5936 5935 5933 5932 5936 5935 5936 5935 5935 5934 5934 5930 5928 5925 5922 5921 5921 5926 5928 5930 5931 5931
5890 5892 5896 5900 5902 5904 5909 5911 5911 5913 5918 5921 5922 5926 5926 5926 5929 5930 5933 5932 5934 5934 5932 5933 5930 5924 5929 5933 5930 5921 5929 5932 5933 5931 5928 5925 5922 5919 5919 5922 5925 5927 5928 5929
5888 5889 5893 5895 5899 5900 5903 5907 5909 5910 5913 5916 5919 5923 5922 5920 5924 5926 5927 5928 5929 5929 5930 5930 5929 5933 5927 5930 5922 5904 5924 5929 5932 5931 5928 5926 5923 5922 5922 5922 5924 5926 5927 5928
5885 5885 5889 5892 5896 5900 5901 5904 5907 5908 5909 5913 5915 5915 5917 5918 5918 5921 5923 5924 5926 5927 5929 5926 5925 5933 5929 5929 5931 5921 5926 5924 5930 5930 5928 5926 5923 5923 5924 5923 5923 5923 5925 5926
5879 5879 5881 5889 5892 5892 5897 5899 5901 5902 5905 5907 5912 5912 5913 5915 5917 5916 5918 5920 5921 5923 5924 5924 5931 5929 5927 5929 5929 5928 5926 5926 5929 5928 5926 5926 5924 5922 5922 5922 5923 5923 5923 5923
5873 5873 5876 5883 5886 5890 5892 5895 5897 5898 5902 5905 5908 5909 5912 5913 5914 5915 5916 5915 5916 5918 5925 5930 5930 5928 5927 5926 5927 5927 5928 5928 5927 5926 5924 5923 5923 5923 5922 5921 5920 5920 5921 5921
5872 5871 5873 5877 5882 5885 5888 5893 5895 5896 5899 5901 5903 5906 5909 5910 5909 5910 5913 5916 5919 5922 5923 5924 5925 5924 5924 5923 5924 5925 5927 5926 5925 5923 5922 5921 5921 5921 5921 5920 5919 5919 5918 5917
5870 5870 5870 5872 5876 5879 5887 5890 5890 5892 5894 5896 5898 5901 5902 5904 5908 5910 5909 5911 5914 5916 5919 5920 5921 5921 5920 5921 5923 5924 5923 5923 5921 5920 5919 5918 5919 5918 5918 5918 5917 5915 5915 5914
5864 5867 5867 5868 5872 5878 5883 5887 5887 5888 5890 5893 5895 5895 5898 5901 5905 5908 5909 5909 5909 5909 5911 5912 5916 5917 5920 5922 5923 5921 5920 5920 5920 5917 5916 5916 5917 5916 5915 5915 5914 5913 5912 5910
5859 5861 5863 5865 5867 5872 5880 5882 5884 5885 5886 5888 5891 5892 5895 5898 5900 5903 5904 5905 5906 5907 5909 5909 5908 5915 5919 5920 5919 5919 5918 5918 5916 5915 5914 5913 5913 5913 5912 5911 5910 5910 5909 5908
5853 5856 5858 5861 5863 5867 5873 5878 5879 5881 5886 5885 5888 5888 5890 5893 5896 5897 5897 5898 5899 5900 5902 5901 5907 5907 5915 5917 5916 5915 5914 5914 5913 5912 5911 5910 5910 5909 5909 5908 5907 5907 5905 5903
5847 5849 5852 5856 5859 5864 5868 5874 5877 5877 5880 5882 5883 5885 5887 5888 5890 5889 5888 5886 5882 5874 5870 5878 5896 5902 5907 5911 5911 5912 5911 5910 5910 5908 5906 5907 5906 5905 5905 5904 5903 5901 5899 5898
5842 5846 5848 5852 5854 5859 5864 5868 5870 5870 5872 5876 5880 5881 5883 5884 5884 5885 5884 5881 5874 5869 5868 5869 5878 5896 5897 5905 5906 5907 5907 5906 5905 5904 5903 5902 5901 5900 5900 5900 5898 5897 5896 5894
5832 5838 5841 5845 5849 5854 5861 5862 5866 5866 5865 5867 5869 5871 5875 5877 5878 5880 5879 5874 5857 5821 5845 5865 5879 5888 5893 5898 5899 5900 5901 5901 5900 5899 5898 5897 5897 5897 5896 5895 5894 5893 5892 5889
5826 5830 5834 5839 5843 5848 5855 5858 5861 5861 5863 5860 5859 5864 5869 5869 5872 5874 5872 5868 5860 5858 5859 5870 5878 5885 5886 5889 5891 5892 5893 5893 5893 5893 5892 5893 5893 5892 5891 5890 5890 5888 5886 5884
5819 5822 5828 5834 5839 5841 5848 5852 5851 5855 5854 5853 5857 5862 5866 5867 5866 5868 5866 5866 5864 5864 5868 5875 5879 5874 5876 5880 5880 5879 5882 5886 5887 5889 5888 5888 5888 5888 5887 5886 5885 5883 5880 5878
Wind_Speed
20 17 10 10 9 11 5 7 11 9 7 13 6 10 11 13 12 13 16 16 13 12 10 7 4 5 6 9 3 4 1 2 2 5 3 2 5 7 6 2 3 8 6 3
24 16 15 16 14 12 9 4 9 10 8 13 12 2 6 7 12 7 13 14 14 11 8 7 6 5 6 6 6 6 4 3 5 4 6 6 6 5 6 3 4 6 1 4
27 16 21 20 17 13 10 2 7 8 8 8 7 12 8 6 10 9 6 12 9 8 6 4 5 5 5 3 7 7 5 6 7 7 7 9 8 8 8 4 2 3 1 4
30 22 25 24 20 14 14 5 10 18 15 6 8 15 14 18 19 25 10 8 4 6 7 5 5 4 3 4 6 8 8 7 6 7 7 7 7 5 3 3 4 3 3 2
28 26 24 27 20 12 9 8 12 8 5 2 5 13 13 19 19 12 7 2 2 4 11 11 6 5 4 2 2 5 6 6 6 7 6 5 4 5 6 3 3 4 3 1
31 31 32 29 24 17 16 17 15 16 3 6 8 15 12 18 16 13 5 5 2 9 10 12 10 6 7 8 6 4 4 4 4 4 4 4 3 1 2 4 6 5 4 3
30 31 31 29 28 26 25 27 22 18 14 7 5 12 10 14 8 12 4 8 9 11 8 11 11 7 8 8 10 9 7 4 2 2 1 1 1 1 2 4 6 8 7 5
29 28 29 33 32 27 27 31 33 31 28 13 8 11 11 11 11 16 9 9 11 10 11 10 12 4 4 7 9 9 7 7 2 2 4 5 4 5 3 2 8 9 8 6
25 26 31 29 21 16 15 25 24 29 29 25 15 14 9 8 14 15 8 7 10 3 10 9 10 5 4 5 4 7 4 6 5 5 6 9 10 9 7 5 5 5 7 7
17 21 28 24 23 22 14 15 22 24 27 25 19 13 9 11 13 13 4 4 3 4 15 10 9 8 1 5 5 6 3 4 6 7 10 13 15 14 12 9 10 7 6 6
19 22 26 24 18 21 13 12 22 23 26 23 15 18 9 9 13 17 2 10 13 7 4 17 14 13 2 4 6 6 4 5 8 8 11 15 18 15 12 15 11 11 9 7
15 22 28 20 16 11 6 9 21 26 23 19 17 11 8 11 16 14 9 10 8 10 10 17 3 7 8 4 10 1 8 2 11 12 12 14 13 8 8 16 16 12 9 9
12 27 29 17 23 18 10 3 6 28 24 21 18 12 11 17 13 14 9 12 14 9 2 5 3 9 8 6 14 6 5 2 10 15 16 14 8 1 6 9 11 11 10 9
18 19 30 25 21 16 17 15 12 14 33 24 19 22 14 18 17 17 13 9 12 10 2 4 5 4 8 13 2 13 14 7 7 13 15 10 7 6 8 9 10 9 10 10
23 23 22 34 28 22 22 10 15 13 13 25 23 18 9 14 18 12 5 9 13 12 0 3 4 5 2 4 6 7 11 7 11 14 11 9 7 7 8 10 13 12 12 12
16 14 21 40 33 28 25 17 11 7 8 15 27 23 14 14 11 16 14 13 13 11 7 8 6 7 5 5 5 6 10 9 11 13 9 7 7 7 4 4 5 6 7 8
13 13 21 22 40 30 27 18 12 13 15 17 23 31 26 17 11 7 9 13 6 8 11 11 10 12 4 8 8 8 12 11 12 11 6 4 5 4 4 4 5 6 8 9
17 15 22 26 37 34 26 19 17 18 20 17 12 21 32 25 13 13 14 15 13 10 7 15 13 15 8 9 10 11 12 11 10 9 2 2 3 3 6 6 7 8 9 10
15 14 22 27 33 35 30 19 17 20 31 19 16 16 20 25 16 17 17 22 23 22 18 15 10 14 13 13 13 13 14 12 11 9 9 6 8 7 9 10 11 13 15 16
22 18 20 19 24 30 31 22 20 17 17 26 18 18 20 20 24 27 30 31 28 24 23 21 22 17 16 16 12 9 10 9 6 8 11 12 13 13 14 14 15 16 17 19
26 29 28 27 28 27 28 26 19 19 22 20 21 16 16 24 27 31 36 37 34 31 29 26 28 23 17 16 11 11 9 8 9 12 15 14 16 16 18 18 19 18 17 18
29 31 33 35 31 28 25 19 17 24 19 23 27 23 22 22 26 30 33 31 34 40 44 51 43 29 22 12 7 11 11 15 14 17 17 16 15 16 18 19 18 16 17 18
41 37 31 36 36 34 29 23 24 17 19 19 26 29 34 29 22 22 28 34 38 44 50 52 49 34 21 15 13 15 15 16 17 17 16 15 14 11 12 14 15 16 17 18
43 41 36 33 37 38 33 31 28 28 27 25 23 32 38 36 34 26 23 22 30 20 44 38 34 24 17 16 18 19 18 21 19 14 14 12 9 10 11 12 14 16 17 20
40 36 35 37 34 33 32 28 31 33 33 25 21 20 28 21 14 9 8 6 9 9 15 19 18 17 17 18 20 25 24 22 18 14 15 8 10 12 13 15 18 19 20 22
42 41 42 34 37 37 33 34 36 32 26 29 28 21 12 11 11 6 8 5 6 5 4 9 13 8 17 18 20 31 28 22 16 11 10 11 12 15 16 18 21 22 23 24
Wind_Direction
233 228 234 182 165 113 87 60 60 351 34 86 101 122 80 76 38 32 31 24 30 32 37 46 50 69 77 96 120 78 54 267 241 249 244 134 173 188 173 173 120 68 39 26
226 218 216 202 228 140 124 22 40 32 52 69 95 101 53 86 32 33 26 24 25 22 27 35 24 62 51 98 125 113 116 98 94 116 125 151 161 180 182 127 123 127 214 31
230 202 213 218 232 158 144 113 271 272 172 172 15 356 352 351 23 11 339 358 17 10 16 350 19 38 89 73 99 107 106 84 86 85 102 126 141 164 187 179 161 155 241 31
226 215 210 216 215 190 164 235 300 264 221 226 186 319 327 324 340 342 315 336 13 27 41 41 2 344 80 70 75 84 86 84 92 102 107 112 122 138 143 144 141 166 190 127
216 218 212 211 198 209 202 241 264 296 353 310 7 294 311 315 352 35 352 18 131 104 79 76 49 10 49 50 81 94 98 88 71 69 85 109 128 171 160 163 151 145 168 129
219 219 220 213 203 191 218 227 245 271 252 295 329 296 302 347 10 334 21 25 163 127 96 90 75 72 89 97 96 78 71 67 35 43 57 65 85 235 217 154 121 143 181 226
218 221 225 220 202 193 217 217 228 237 238 195 229 281 301 328 350 333 261 280 171 157 108 87 96 79 93 79 73 60 52 64 19 348 321 224 223 151 245 199 172 190 197 207
220 215 224 226 229 231 223 218 220 224 230 237 233 283 317 326 331 326 276 264 176 160 130 121 122 108 62 70 68 65 31 19 355 283 287 283 266 254 209 178 221 219 217 202
223 214 210 224 222 239 249 239 240 237 237 236 245 259 288 322 326 319 310 304 53 142 135 142 129 110 319 324 36 70 30 18 350 330 302 292 290 283 265 231 225 223 226 211
216 221 215 189 204 207 230 233 227 229 232 231 242 248 294 309 309 313 87 191 46 178 166 158 151 134 24 333 339 74 41 350 345 325 311 308 304 291 272 236 233 237 219 199
209 196 183 185 219 226 205 244 227 217 231 232 215 233 290 295 312 330 285 269 310 237 237 179 169 146 332 359 1 67 43 19 349 329 325 327 322 317 263 224 210 221 229 215
212 204 185 203 186 171 274 254 231 226 226 231 212 206 297 290 300 317 341 259 347 357 348 164 277 155 102 1 254 2 101 6 347 332 333 331 333 2 147 187 190 191 217 227
290 217 188 199 196 191 213 25 310 231 225 226 229 235 281 271 296 292 295 302 335 356 7 344 115 208 114 85 302 267 24 28 331 335 333 328 336 304 161 164 179 197 207 225
274 263 207 192 187 205 215 234 260 249 237 217 224 227 267 263 268 275 307 307 342 313 330 312 70 195 89 91 319 341 341 344 318 324 325 307 308 269 215 197 195 196 219 238
252 254 222 196 189 206 211 240 253 233 245 231 216 237 222 247 283 285 297 335 314 304 302 359 271 256 321 47 12 297 303 303 310 304 293 255 259 267 262 251 248 254 266 273
256 225 213 194 199 193 200 215 199 213 223 235 212 225 230 249 281 291 281 302 329 337 240 236 268 269 278 12 19 318 282 276 283 295 254 211 222 227 231 237 250 257 265 275
250 221 211 212 203 206 209 199 221 224 234 230 232 227 235 251 241 250 231 238 265 323 296 267 288 290 307 19 356 291 267 268 273 274 243 200 212 224 227 234 249 257 266 272
260 247 214 215 208 212 200 205 219 223 228 235 216 234 240 245 250 229 241 238 255 274 271 262 274 283 284 319 313 272 252 233 258 284 275 320 284 259 261 259 267 275 281 286
246 248 219 218 216 208 200 198 211 220 227 230 227 227 232 242 247 238 247 270 279 280 269 230 239 263 265 275 279 264 236 232 273 300 315 287 265 277 282 286 291 293 290 292
223 228 228 213 213 213 204 207 215 231 242 222 222 239 249 253 257 264 268 270 276 268 254 253 228 229 247 253 258 241 232 239 276 297 299 304 290 277 280 286 297 295 292 288
222 223 220 201 202 197 200 215 221 241 244 251 252 235 255 263 268 270 273 278 280 269 240 252 220 197 231 233 235 245 236 256 272 282 288 282 278 282 283 281 281 284 292 299
218 212 215 201 205 201 200 216 242 234 259 255 266 236 255 265 275 279 283 283 267 256 259 264 198 198 198 216 244 260 256 256 263 273 279 284 279 271 272 280 288 299 308 304
222 229 219 211 209 205 202 222 223 245 252 264 240 245 247 252 270 274 275 270 268 261 253 211 177 191 185 219 251 261 263 257 260 271 282 284 278 281 286 293 301 304 302 304
225 224 228 217 220 215 211 223 232 238 251 249 245 255 233 246 253 260 271 278 298 255 181 170 164 181 191 228 249 249 255 255 257 266 276 281 289 286 295 301 302 302 307 307
231 231 230 233 229 226 214 225 232 245 242 235 223 224 232 243 265 284 288 293 336 91 118 147 161 193 205 226 237 238 242 244 246 251 249 273 293 299 304 305 306 306 305 302
232 233 233 242 237 239 228 222 227 227 215 215 216 205 229 271 264 257 284 17 55 83 162 205 218 220 207 225 252 219 227 230 234 246 277 272 279 288 297 299 298 298 301 306